Temp
-1 -1 -1 -1 -1 -1 -1 -1 -0 -0 -0 0 1 1 2 2 3 4 5 5 6 7
-2 -2 -2 -2 -2 -2 -2 -1 -1 -1 -1 -1 -0 0 1 1 2 3 4 5 5 6
-3 -2 -2 -2 -2 -3 -3 -3 -2 -2 -2 -1 -1 -0 0 1 1 2 3 4 5 5
-3 -3 -3 -3 -4 -4 -3 -3 -3 -3 -3 -2 -2 -1 -1 -1 0 2 3 4 4 6
-4 -4 -4 -4 -4 -4 -4 -4 -4 -3 -3 -3 -2 -2 -1 -1 -0 0 1 2 3 5
-5 -5 -5 -5 -5 -5 -5 -5 -4 -4 -3 -3 -3 -3 -2 -2 -1 -0 -0 1 2 4
-5 -5 -5 -5 -6 -5 -5 -5 -5 -5 -4 -4 -4 -4 -3 -2 -2 -1 -0 1 1 3
-6 -7 -6 -6 -6 -6 -6 -6 -6 -6 -5 -4 -4 -4 -4 -4 -3 -3 -2 -1 0 1
-7 -7 -7 -7 -7 -7 -6 -7 -7 -7 -6 -6 -5 -5 -5 -5 -5 -5 -4 -3 -3 -2
-7 -7 -7 -8 -7 -7 -7 -7 -7 -7 -7 -7 -6 -6 -6 -6 -6 -6 -5 -5 -4 -4
-7 -8 -8 -8 -8 -8 -7 -7 -7 -8 -7 -8 -7 -6 -7 -7 -6 -6 -6 -6 -5 -5
-7 -8 -8 -8 -8 -8 -8 -8 -8 -8 -8 -8 -8 -7 -7 -7 -7 -7 -7 -7 -6 -6
-8 -8 -8 -8 -8 -9 -8 -8 -8 -9 -9 -9 -8 -7 -7 -8 -9 -8 -8 -8 -8 -7
-8 -8 -8 -8 -8 -9 -9 -9 -9 -9 -9 -9 -9 -9 -8 -8 -9 -9 -9 -9 -9 -9
Height
793 789 785 782 779 775 769 765 759 753 751 749 746 744 741 740 738 734 732 728 725 724
793 788 785 782 778 773 768 762 756 752 749 744 739 737 735 734 731 728 724 720 718 716
794 790 786 782 777 771 766 761 755 750 746 740 737 735 732 728 723 720 718 714 712 709
795 791 785 781 775 770 765 759 755 750 744 740 735 731 726 721 717 713 711 708 705 702
797 791 786 782 777 773 766 760 755 752 749 743 736 730 724 718 713 708 704 701 697 693
798 792 788 783 778 774 769 763 759 755 749 742 735 728 719 712 705 699 694 690 688 687
800 797 792 786 781 776 772 768 763 758 751 743 736 728 720 711 703 694 687 679 677 680
803 801 796 790 784 779 775 770 765 759 754 747 739 731 721 712 703 694 685 675 674 673
807 803 797 790 785 780 778 775 771 764 758 750 742 734 725 716 708 700 691 684 678 672
808 802 796 793 790 787 783 781 775 769 763 754 746 738 730 722 715 708 699 692 683 675
809 805 802 799 794 791 789 786 780 775 768 760 750 744 735 726 720 714 705 698 690 683
814 811 807 803 799 796 794 789 784 779 772 765 758 753 744 732 727 719 713 708 700 694
820 816 812 810 806 802 798 793 788 782 778 773 767 761 753 744 735 727 722 716 711 708
822 819 817 816 811 805 801 796 790 785 783 779 775 769 763 754 745 741 736 729 725 725
Wind_Speed
18 17 16 18 18 18 20 21 22 22 22 21 21 20 20 23 25 24 24 25 23 22
19 20 19 19 18 19 19 21 21 22 23 22 23 23 23 23 24 26 27 26 26 27
19 18 18 17 18 19 19 19 20 22 23 24 23 22 23 23 22 25 26 25 26 27
19 18 19 18 20 20 20 21 20 21 23 24 24 23 24 24 25 24 24 26 28 28
18 18 19 18 19 19 20 21 22 21 20 22 21 22 23 24 23 25 26 27 28 28
18 19 18 19 20 20 20 21 22 21 22 25 24 24 27 25 25 26 27 29 30 28
17 17 16 16 19 21 22 23 23 24 24 26 27 27 27 21 23 22 23 27 28 25
15 15 15 16 18 20 23 26 27 27 27 28 30 33 33 28 28 27 25 23 10 7
15 17 19 20 22 24 25 26 28 30 30 32 36 37 34 32 31 32 33 29 25 25
18 21 25 21 21 22 25 25 28 32 32 33 42 42 35 32 32 32 35 37 34 33
23 22 21 23 24 23 22 22 26 29 32 34 43 43 39 34 33 32 36 41 42 40
22 22 21 24 23 21 20 22 24 28 32 36 38 42 41 36 30 32 35 38 48 46
15 20 19 19 20 18 18 21 23 27 31 32 36 40 40 36 32 33 34 37 42 46
16 18 17 17 19 20 21 22 27 28 30 33 34 36 38 37 34 29 30 33 35 38
Wind_Direction
353 353 346 341 335 328 326 321 322 323 317 311 306 299 293 284 280 275 269 266 262 263
350 352 347 339 337 332 328 326 324 323 318 316 310 303 298 286 278 274 271 264 262 261
352 349 347 344 341 341 338 337 334 325 322 323 316 306 298 291 284 275 268 264 257 256
357 354 356 353 352 350 349 349 344 340 334 329 324 315 307 299 290 278 273 267 259 253
2 4 5 2 0 357 357 358 355 350 342 337 331 328 319 306 293 282 275 272 268 258
9 11 10 11 11 10 7 7 4 360 357 354 350 342 338 321 304 290 280 269 259 258
9 4 8 16 20 19 17 15 11 8 4 2 1 0 356 347 344 335 307 288 254 256
13 9 12 18 22 23 23 21 17 12 10 10 13 11 12 11 5 6 4 30 16 321
23 24 23 25 25 28 25 21 18 16 13 15 18 17 20 22 17 19 25 23 27 30
27 29 26 24 29 28 27 24 23 19 15 19 21 18 18 24 25 24 30 29 29 31
35 28 24 26 28 29 29 29 25 22 22 22 23 19 20 27 26 26 31 32 32 35
40 39 27 23 22 27 30 32 31 28 25 25 24 22 21 27 23 26 29 32 35 36
37 43 31 30 27 29 34 34 34 34 29 29 24 25 24 25 27 28 28 30 32 33
43 39 38 38 35 34 34 36 34 36 29 28 27 25 26 28 32 30 30 31 32 31